Time,TemperatureF,DewpointF,PressureIn,WindDirection,WindDirectionDegrees,WindSpeedMPH,WindSpeedGustMPH,Humidity,HourlyPrecipIn,Conditions,Clouds,dailyrainin,SoftwareType,DateUTC
2013-05-19 00:01:00,54.7,24.6,28.44,South,179,0.0,0.0,31,0.00,CLR,OVC,0.00,WeatherDisplay:10.37,2013-05-19 04:01:00,
2013-05-19 00:06:00,54.5,25.2,28.44,SSW,197,0.0,0.0,32,0.00,CLR,OVC,0.00,WeatherDisplay:10.37,2013-05-19 04:06:00,
2013-05-19 00:11:00,54.3,26.5,28.44,SSW,197,0.0,0.0,34,0.00,CLR,OVC,0.00,WeatherDisplay:10.37,2013-05-19 04:11:00,
2013-05-19 00:16:00,54.1,27.1,28.44,SSW,192,0.0,0.0,35,0.00,CLR,OVC,0.00,WeatherDisplay:10.37,2013-05-19 04:16:00,
2013-05-19 00:21:00,54.0,27.6,28.44,SSE,154,2.2,3.5,36,0.00,CLR,OVC,0.00,WeatherDisplay:10.37,2013-05-19 04:21:00,
2013-05-19 00:26:00,54.0,27.6,28.44,South,180,2.2,3.5,36,0.00,CLR,OVC,0.00,WeatherDisplay:10.37,2013-05-19 04:26:00,
2013-05-19 00:31:00,54.1,27.7,28.44,South,179,2.7,3.5,36,0.00,CLR,OVC,0.00,WeatherDisplay:10.37,2013-05-19 04:31:00,
2013-05-19 00:36:00,54.1,27.1,28.44,South,182,0.0,0.0,35,0.00,CLR,OVC,0.00,WeatherDisplay:10.37,2013-05-19 04:36:00,
2013-05-19 00:41:00,54.1,27.1,28.44,South,186,2.2,3.5,35,0.00,CLR,OVC,0.00,WeatherDisplay:10.37,2013-05-19 04:41:00,
2013-05-19 00:46:00,54.1,27.7,28.44,South,186,0.0,0.0,36,0.00,CLR,OVC,0.00,WeatherDisplay:10.37,2013-05-19 04:46:00,
2013-05-19 00:51:00,54.0,27.6,28.41,South,186,0.0,0.0,36,0.00,CLR,OVC,0.00,WeatherDisplay:10.37,2013-05-19 04:51:00,
2013-05-19 00:56:00,53.8,27.4,28.41,South,187,0.0,0.0,36,0.00,CLR,OVC,0.00,WeatherDisplay:10.37,2013-05-19 04:56:00,
2013-05-19 01:01:00,53.6,27.3,28.41,South,187,0.0,0.0,36,0.00,CLR,OVC,0.00,WeatherDisplay:10.37,2013-05-19 05:01:00,
2013-05-19 01:06:00,53.6,27.3,28.41,South,186,2.2,3.5,36,0.00,CLR,OVC,0.00,WeatherDisplay:10.37,2013-05-19 05:06:00,
2013-05-19 01:11:00,53.6,27.3,28.41,South,183,0.0,2.3,36,0.00,CLR,OVC,0.00,WeatherDisplay:10.37,2013-05-19 05:11:00,
2013-05-19 01:16:00,53.6,27.3,28.41,SSW,202,0.0,3.1,36,0.00,CLR,OVC,0.00,WeatherDisplay:10.37,2013-05-19 05:16:00,
2013-05-19 01:21:00,53.6,27.3,28.41,SSW,192,0.0,0.0,36,0.00,CLR,OVC,0.00,WeatherDisplay:10.37,2013-05-19 05:21:00,
2013-05-19 01:26:00,53.6,27.3,28.41,SSW,199,0.0,2.3,36,0.00,CLR,OVC,0.00,WeatherDisplay:10.37,2013-05-19 05:26:00,
2013-05-19 01:31:00,53.4,27.8,28.41,SSW,203,0.0,0.0,37,0.00,CLR,OVC,0.00,WeatherDisplay:10.37,2013-05-19 05:31:00,
2013-05-19 01:36:00,53.2,27.6,28.41,South,191,0.0,0.0,37,0.00,CLR,OVC,0.00,WeatherDisplay:10.37,2013-05-19 05:36:00,
2013-05-19 01:41:00,53.1,28.1,28.41,SSW,193,3.1,3.5,38,0.00,CLR,OVC,0.00,WeatherDisplay:10.37,2013-05-19 05:41:00,
2013-05-19 01:46:00,53.1,28.1,28.41,SSE,161,0.0,0.0,38,0.00,CLR,OVC,0.00,WeatherDisplay:10.37,2013-05-19 05:46:00,
2013-05-19 01:51:00,53.1,28.1,28.41,SSW,192,0.0,2.3,38,0.00,CLR,OVC,0.00,WeatherDisplay:10.37,2013-05-19 05:51:00,
2013-05-19 01:56:00,53.1,28.1,28.41,SSW,200,3.1,3.1,38,0.00,CLR,OVC,0.00,WeatherDisplay:10.37,2013-05-19 05:56:00,
2013-05-19 02:01:00,53.4,28.4,28.41,South,179,3.1,3.5,38,0.00,CLR,OVC,0.00,WeatherDisplay:10.37,2013-05-19 06:01:00,
2013-05-19 02:06:00,53.4,28.4,28.41,SSW,192,4.0,5.8,38,0.00,CLR,OVC,0.00,WeatherDisplay:10.37,2013-05-19 06:06:00,
2013-05-19 02:11:00,53.1,28.1,28.41,SSW,203,2.7,3.5,38,0.00,CLR,OVC,0.00,WeatherDisplay:10.37,2013-05-19 06:11:00,
2013-05-19 02:16:00,52.9,28.6,28.41,South,176,3.1,3.5,39,0.00,CLR,OVC,0.00,WeatherDisplay:10.37,2013-05-19 06:16:00,
2013-05-19 02:21:00,52.9,29.2,28.41,South,183,2.2,4.6,40,0.00,CLR,OVC,0.00,WeatherDisplay:10.37,2013-05-19 06:21:00,
2013-05-19 02:26:00,52.7,29.0,28.41,South,189,3.1,3.5,40,0.00,CLR,OVC,0.00,WeatherDisplay:10.37,2013-05-19 06:26:00,
2013-05-19 02:31:00,52.5,29.5,28.41,SSW,201,0.0,3.5,41,0.00,CLR,OVC,0.00,WeatherDisplay:10.37,2013-05-19 06:31:00,
2013-05-19 02:36:00,52.3,29.9,28.41,SSW,202,0.0,0.0,42,0.00,CLR,OVC,0.00,WeatherDisplay:10.37,2013-05-19 06:36:00,
2013-05-19 02:41:00,52.2,30.3,28.41,SSW,204,0.0,0.0,43,0.00,CLR,OVC,0.00,WeatherDisplay:10.37,2013-05-19 06:41:00,
2013-05-19 02:46:00,52.2,31.4,28.41,SSW,200,3.6,3.6,45,0.00,CLR,OVC,0.00,WeatherDisplay:10.37,2013-05-19 06:46:00,
2013-05-19 02:51:00,52.2,31.4,28.41,SSW,210,0.0,2.3,45,0.00,CLR,OVC,0.00,WeatherDisplay:10.37,2013-05-19 06:51:00,
2013-05-19 02:56:00,52.2,31.4,28.41,SSW,210,0.0,2.3,45,0.00,CLR,OVC,0.00,WeatherDisplay:10.37,2013-05-19 06:56:00,
2013-05-19 03:01:00,52.2,30.9,28.41,SW,215,0.0,0.0,44,0.00,CLR,OVC,0.00,WeatherDisplay:10.37,2013-05-19 07:01:00,
2013-05-19 03:06:00,52.2,32.0,28.41,SSW,195,0.0,2.3,46,0.00,CLR,OVC,0.00,WeatherDisplay:10.37,2013-05-19 07:06:00,
2013-05-19 03:11:00,52.0,31.8,28.41,SSW,198,0.0,0.0,46,0.00,CLR,OVC,0.00,WeatherDisplay:10.37,2013-05-19 07:11:00,
2013-05-19 03:16:00,52.0,31.8,28.41,South,185,4.0,4.9,46,0.00,CLR,OVC,0.00,WeatherDisplay:10.37,2013-05-19 07:16:00,
2013-05-19 03:21:00,52.0,31.8,28.41,SW,216,0.0,2.3,46,0.00,CLR,OVC,0.00,WeatherDisplay:10.37,2013-05-19 07:21:00,
2013-05-19 03:26:00,52.0,31.3,28.41,SW,220,0.0,2.2,45,0.00,CLR,OVC,0.00,WeatherDisplay:10.37,2013-05-19 07:26:00,
2013-05-19 03:31:00,51.8,31.7,28.41,SSW,206,2.2,2.3,46,0.00,CLR,OVC,0.00,WeatherDisplay:10.37,2013-05-19 07:31:00,
2013-05-19 03:36:00,51.6,31.5,28.41,South,191,0.0,2.3,46,0.00,CLR,OVC,0.00,WeatherDisplay:10.37,2013-05-19 07:36:00,
2013-05-19 03:41:00,51.6,31.5,28.41,South,179,0.0,2.3,46,0.00,CLR,OVC,0.00,WeatherDisplay:10.37,2013-05-19 07:41:00,
2013-05-19 03:46:00,51.4,31.3,28.41,South,185,0.0,0.0,46,0.00,CLR,OVC,0.00,WeatherDisplay:10.37,2013-05-19 07:46:00,
2013-05-19 03:51:00,51.6,32.0,28.41,South,185,0.0,2.3,47,0.00,CLR,OVC,0.00,WeatherDisplay:10.37,2013-05-19 07:51:00,
2013-05-19 03:56:00,51.4,31.9,28.41,South,185,0.0,0.0,47,0.00,CLR,OVC,0.00,WeatherDisplay:10.37,2013-05-19 07:56:00,
2013-05-19 04:01:00,51.4,31.3,28.41,SSW,194,0.0,0.0,46,0.00,CLR,OVC,0.00,WeatherDisplay:10.37,2013-05-19 08:01:00,
2013-05-19 04:06:00,51.3,32.2,28.41,South,184,0.0,0.0,48,0.00,CLR,OVC,0.00,WeatherDisplay:10.37,2013-05-19 08:06:00,
2013-05-19 04:11:00,51.1,31.5,28.41,South,182,0.0,2.3,47,0.00,CLR,OVC,0.00,WeatherDisplay:10.37,2013-05-19 08:11:00,
2013-05-19 04:16:00,50.9,31.4,28.41,South,184,0.0,0.0,47,0.00,CLR,OVC,0.00,WeatherDisplay:10.37,2013-05-19 08:16:00,
2013-05-19 04:21:00,50.7,31.2,28.41,South,184,0.0,0.0,47,0.00,CLR,OVC,0.00,WeatherDisplay:10.37,2013-05-19 08:21:00,
2013-05-19 04:26:00,50.5,31.6,28.41,South,184,0.0,0.0,48,0.00,CLR,OVC,0.00,WeatherDisplay:10.37,2013-05-19 08:26:00,
2013-05-19 04:31:00,50.4,31.4,28.41,South,184,0.0,0.0,48,0.00,CLR,OVC,0.00,WeatherDisplay:10.37,2013-05-19 08:31:00,
2013-05-19 04:36:00,50.2,31.2,28.41,South,184,0.0,0.0,48,0.00,CLR,OVC,0.00,WeatherDisplay:10.37,2013-05-19 08:36:00,
2013-05-19 04:41:00,50.0,32.6,28.41,South,185,0.0,0.0,51,0.00,CLR,OVC,0.00,WeatherDisplay:10.37,2013-05-19 08:41:00,
2013-05-19 04:46:00,49.8,32.4,28.41,South,185,0.0,0.0,51,0.00,CLR,OVC,0.00,WeatherDisplay:10.37,2013-05-19 08:46:00,
2013-05-19 04:51:00,49.6,32.2,28.41,South,185,0.0,0.0,51,0.00,CLR,OVC,0.00,WeatherDisplay:10.37,2013-05-19 08:51:00,
2013-05-19 04:56:00,49.5,32.1,28.41,South,185,0.0,0.0,51,0.00,CLR,OVC,0.00,WeatherDisplay:10.37,2013-05-19 08:56:00,
2013-05-19 05:01:00,49.1,32.2,28.41,South,185,0.0,0.0,52,0.00,CLR,OVC,0.00,WeatherDisplay:10.37,2013-05-19 09:01:00,
2013-05-19 05:06:00,48.7,32.4,28.41,South,185,0.0,0.0,53,0.00,CLR,OVC,0.00,WeatherDisplay:10.37,2013-05-19 09:06:00,
2013-05-19 05:11:00,48.7,33.7,28.41,South,181,0.0,0.0,56,0.00,CLR,OVC,0.00,WeatherDisplay:10.37,2013-05-19 09:11:00,
2013-05-19 05:16:00,48.4,32.9,28.41,South,181,0.0,0.0,55,0.00,CLR,OVC,0.00,WeatherDisplay:10.37,2013-05-19 09:16:00,
2013-05-19 05:21:00,48.2,32.8,28.41,South,181,0.0,0.0,55,0.00,CLR,OVC,0.00,WeatherDisplay:10.37,2013-05-19 09:21:00,
2013-05-19 05:26:00,48.2,35.8,28.41,South,181,0.0,0.0,62,0.00,CLR,OVC,0.00,WeatherDisplay:10.37,2013-05-19 09:26:00,
2013-05-19 05:31:00,47.8,34.6,28.41,South,181,0.0,0.0,60,0.00,CLR,OVC,0.00,WeatherDisplay:10.37,2013-05-19 09:31:00,
2013-05-19 05:36:00,48.4,36.4,28.41,South,181,0.0,0.0,63,0.00,CLR,OVC,0.00,WeatherDisplay:10.37,2013-05-19 09:36:00,
2013-05-19 05:41:00,48.2,36.2,28.41,South,181,0.0,0.0,63,0.00,CLR,OVC,0.00,WeatherDisplay:10.37,2013-05-19 09:41:00,
2013-05-19 05:46:00,48.2,36.6,28.41,South,181,0.0,0.0,64,0.00,CLR,OVC,0.00,WeatherDisplay:10.37,2013-05-19 09:46:00,
2013-05-19 05:51:00,48.2,37.4,28.41,South,181,0.0,0.0,66,0.00,CLR,OVC,0.00,WeatherDisplay:10.37,2013-05-19 09:51:00,
2013-05-19 05:56:00,48.0,36.8,28.41,South,181,0.0,0.0,65,0.00,CLR,OVC,0.00,WeatherDisplay:10.37,2013-05-19 09:56:00,
2013-05-19 06:01:00,48.2,37.0,28.41,South,181,0.0,0.0,65,0.00,CLR,OVC,0.00,WeatherDisplay:10.37,2013-05-19 10:01:00,
2013-05-19 06:06:00,48.0,36.4,28.41,South,181,0.0,0.0,64,0.00,CLR,OVC,0.00,WeatherDisplay:10.37,2013-05-19 10:06:00,
2013-05-19 06:11:00,47.8,36.2,28.41,South,181,0.0,0.0,64,0.00,CLR,OVC,0.00,WeatherDisplay:10.37,2013-05-19 10:11:00,
2013-05-19 06:16:00,47.8,37.4,28.41,South,181,0.0,0.0,67,0.00,CLR,OVC,0.00,WeatherDisplay:10.37,2013-05-19 10:16:00,
2013-05-19 06:21:00,47.7,37.6,28.41,South,181,0.0,0.0,68,0.00,CLR,OVC,0.00,WeatherDisplay:10.37,2013-05-19 10:21:00,
2013-05-19 06:26:00,47.5,37.1,28.41,South,181,0.0,0.0,67,0.00,CLR,OVC,0.00,WeatherDisplay:10.37,2013-05-19 10:26:00,
2013-05-19 06:31:00,47.3,36.5,28.41,South,181,0.0,0.0,66,0.00,CLR,OVC,0.00,WeatherDisplay:10.37,2013-05-19 10:31:00,
2013-05-19 06:36:00,47.5,36.7,28.41,South,181,0.0,0.0,66,0.00,CLR,OVC,0.00,WeatherDisplay:10.37,2013-05-19 10:36:00,
2013-05-19 06:41:00,47.7,38.0,28.41,South,181,0.0,0.0,69,0.00,CLR,OVC,0.00,WeatherDisplay:10.37,2013-05-19 10:41:00,
2013-05-19 06:46:00,47.8,37.8,28.41,South,181,0.0,0.0,68,0.00,CLR,OVC,0.00,WeatherDisplay:10.37,2013-05-19 10:46:00,
2013-05-19 06:51:00,48.0,38.0,28.41,South,181,0.0,0.0,68,0.00,CLR,OVC,0.00,WeatherDisplay:10.37,2013-05-19 10:51:00,
2013-05-19 06:56:00,48.7,39.4,28.41,South,179,0.0,0.0,70,0.00,CLR,OVC,0.00,WeatherDisplay:10.37,2013-05-19 10:56:00,
2013-05-19 07:01:00,49.5,40.4,28.41,South,171,2.2,2.3,71,0.00,CLR,OVC,0.00,WeatherDisplay:10.37,2013-05-19 11:01:00,
2013-05-19 07:06:00,50.2,40.4,28.41,South,171,0.0,0.0,69,0.00,CLR,OVC,0.00,WeatherDisplay:10.37,2013-05-19 11:06:00,
2013-05-19 07:11:00,50.5,40.4,28.41,South,188,0.0,0.0,68,0.00,CLR,OVC,0.00,WeatherDisplay:10.37,2013-05-19 11:11:00,
2013-05-19 07:16:00,50.7,39.8,28.41,South,188,0.0,0.0,66,0.00,CLR,OVC,0.00,WeatherDisplay:10.37,2013-05-19 11:16:00,
2013-05-19 07:21:00,50.9,37.9,28.41,SSE,162,2.2,3.5,61,0.00,CLR,OVC,0.00,WeatherDisplay:10.37,2013-05-19 11:21:00,
2013-05-19 07:26:00,50.9,37.5,28.41,SSE,163,0.0,0.0,60,0.00,CLR,OVC,0.00,WeatherDisplay:10.37,2013-05-19 11:26:00,
2013-05-19 07:31:00,50.9,37.1,28.41,South,171,2.2,2.3,59,0.00,CLR,OVC,0.00,WeatherDisplay:10.37,2013-05-19 11:31:00,
2013-05-19 07:36:00,51.3,37.8,28.41,South,171,3.1,3.6,60,0.00,CLR,OVC,0.00,WeatherDisplay:10.37,2013-05-19 11:36:00,
2013-05-19 07:41:00,51.8,38.3,28.41,South,187,0.0,0.0,60,0.00,CLR,OVC,0.00,WeatherDisplay:10.37,2013-05-19 11:41:00,
2013-05-19 07:46:00,52.5,38.6,28.41,South,179,3.1,3.6,59,0.00,CLR,OVC,0.00,WeatherDisplay:10.37,2013-05-19 11:46:00,
2013-05-19 07:51:00,53.4,36.7,28.41,South,183,2.7,3.5,53,0.00,CLR,OVC,0.00,WeatherDisplay:10.37,2013-05-19 11:51:00,
2013-05-19 07:56:00,54.0,35.7,28.41,SSE,151,4.0,5.8,50,0.00,CLR,OVC,0.00,WeatherDisplay:10.37,2013-05-19 11:56:00,
2013-05-19 08:01:00,54.3,35.5,28.41,SSW,202,3.1,4.6,49,0.00,CLR,OVC,0.00,WeatherDisplay:10.37,2013-05-19 12:01:00,
2013-05-19 08:06:00,54.9,36.0,28.41,South,183,2.7,3.5,49,0.00,CLR,OVC,0.00,WeatherDisplay:10.37,2013-05-19 12:06:00,
2013-05-19 08:11:00,55.2,35.9,28.41,SSW,207,3.6,5.8,48,0.00,CLR,OVC,0.00,WeatherDisplay:10.37,2013-05-19 12:11:00,
2013-05-19 08:16:00,55.6,35.7,28.41,SSE,157,0.0,3.1,47,0.00,CLR,OVC,0.00,WeatherDisplay:10.37,2013-05-19 12:16:00,
2013-05-19 08:21:00,55.8,35.3,28.41,SW,232,3.6,4.6,46,0.00,CLR,OVC,0.00,WeatherDisplay:10.37,2013-05-19 12:21:00,
2013-05-19 08:26:00,56.1,35.6,28.41,South,190,0.0,5.4,46,0.00,CLR,OVC,0.00,WeatherDisplay:10.37,2013-05-19 12:26:00,
2013-05-19 08:31:00,56.7,35.5,28.41,SW,217,3.6,4.6,45,0.00,CLR,OVC,0.00,WeatherDisplay:10.37,2013-05-19 12:31:00,
2013-05-19 08:36:00,57.2,36.0,28.41,SSW,192,2.2,3.5,45,0.00,CLR,OVC,0.00,WeatherDisplay:10.37,2013-05-19 12:36:00,
2013-05-19 08:41:00,57.9,35.5,28.41,South,171,2.7,3.5,43,0.00,CLR,OVC,0.00,WeatherDisplay:10.37,2013-05-19 12:41:00,
2013-05-19 08:46:00,58.8,35.8,28.41,South,190,3.6,4.6,42,0.00,CLR,OVC,0.00,WeatherDisplay:10.37,2013-05-19 12:46:00,
2013-05-19 08:51:00,59.5,35.8,28.38,SSW,192,4.0,5.8,41,0.00,CLR,OVC,0.00,WeatherDisplay:10.37,2013-05-19 12:51:00,
2013-05-19 08:56:00,60.1,35.0,28.38,SSW,201,6.3,8.3,39,0.00,CLR,OVC,0.00,WeatherDisplay:10.37,2013-05-19 12:56:00,
2013-05-19 09:01:00,60.4,34.7,28.38,SW,233,2.2,5.8,38,0.00,CLR,OVC,0.00,WeatherDisplay:10.37,2013-05-19 13:01:00,
2013-05-19 09:06:00,61.3,35.5,28.38,SSW,198,4.0,5.8,38,0.00,CLR,OVC,0.00,WeatherDisplay:10.37,2013-05-19 13:06:00,
2013-05-19 09:11:00,61.7,35.1,28.38,SSW,203,5.8,8.1,37,0.00,CLR,OVC,0.00,WeatherDisplay:10.37,2013-05-19 13:11:00,
2013-05-19 09:16:00,62.6,35.3,28.38,SSE,164,3.6,5.8,36,0.00,CLR,OVC,0.00,WeatherDisplay:10.37,2013-05-19 13:16:00,
2013-05-19 09:21:00,63.0,36.3,28.38,West,264,2.7,3.5,37,0.00,CLR,OVC,0.00,WeatherDisplay:10.37,2013-05-19 13:21:00,
2013-05-19 09:26:00,63.0,36.3,28.38,South,175,4.0,5.8,37,0.00,CLR,OVC,0.00,WeatherDisplay:10.37,2013-05-19 13:26:00,
2013-05-19 09:31:00,64.4,37.5,28.38,SSW,201,4.9,4.9,37,0.00,CLR,OVC,0.00,WeatherDisplay:10.37,2013-05-19 13:31:00,
2013-05-19 09:36:00,65.1,36.8,28.38,SSW,195,3.1,6.9,35,0.00,CLR,OVC,0.00,WeatherDisplay:10.37,2013-05-19 13:36:00,
2013-05-19 09:41:00,65.3,36.2,28.38,WSW,255,3.6,4.6,34,0.00,CLR,OVC,0.00,WeatherDisplay:10.37,2013-05-19 13:41:00,
2013-05-19 09:46:00,65.5,36.4,28.38,WNW,286,3.6,5.8,34,0.00,CLR,OVC,0.00,WeatherDisplay:10.37,2013-05-19 13:46:00,
2013-05-19 09:51:00,65.7,37.2,28.41,WSW,255,2.7,3.5,35,0.00,CLR,OVC,0.00,WeatherDisplay:10.37,2013-05-19 13:51:00,
2013-05-19 09:56:00,65.8,36.7,28.41,SW,216,2.7,5.8,34,0.00,CLR,OVC,0.00,WeatherDisplay:10.37,2013-05-19 13:56:00,
2013-05-19 10:01:00,65.8,36.7,28.41,WSW,251,4.0,8.1,34,0.00,CLR,OVC,0.00,WeatherDisplay:10.37,2013-05-19 14:01:00,
2013-05-19 10:06:00,66.2,37.0,28.41,WSW,239,5.8,8.1,34,0.00,CLR,OVC,0.00,WeatherDisplay:10.37,2013-05-19 14:06:00,
2013-05-19 10:11:00,66.4,37.9,28.41,WSW,246,2.7,3.5,35,0.00,CLR,OVC,0.00,WeatherDisplay:10.37,2013-05-19 14:11:00,
2013-05-19 10:16:00,66.6,37.3,28.41,SW,227,3.1,5.8,34,0.00,CLR,OVC,0.00,WeatherDisplay:10.37,2013-05-19 14:16:00,
2013-05-19 10:21:00,66.7,37.5,28.41,WSW,245,6.7,8.1,34,0.00,CLR,OVC,0.00,WeatherDisplay:10.37,2013-05-19 14:21:00,
2013-05-19 10:26:00,67.1,37.0,28.41,SSE,162,4.0,6.9,33,0.00,CLR,OVC,0.00,WeatherDisplay:10.37,2013-05-19 14:26:00,
2013-05-19 10:31:00,67.1,37.0,28.41,SSE,168,3.6,8.1,33,0.00,CLR,OVC,0.00,WeatherDisplay:10.37,2013-05-19 14:31:00,
2013-05-19 10:36:00,66.9,37.6,28.41,SSE,163,2.2,3.6,34,0.00,CLR,OVC,0.00,WeatherDisplay:10.37,2013-05-19 14:36:00,
2013-05-19 10:41:00,67.1,37.0,28.41,SSE,158,2.7,5.8,33,0.00,CLR,OVC,0.00,WeatherDisplay:10.37,2013-05-19 14:41:00,
2013-05-19 10:46:00,67.5,37.3,28.41,West,281,3.1,5.8,33,0.00,CLR,OVC,0.00,WeatherDisplay:10.37,2013-05-19 14:46:00,
2013-05-19 10:51:00,67.8,37.6,28.41,West,268,2.7,3.5,33,0.00,CLR,OVC,0.00,WeatherDisplay:10.37,2013-05-19 14:51:00,
2013-05-19 10:56:00,68.9,38.6,28.41,SW,236,3.1,5.8,33,0.00,CLR,OVC,0.00,WeatherDisplay:10.37,2013-05-19 14:56:00,
2013-05-19 11:01:00,70.5,38.4,28.41,SSW,211,3.1,4.6,31,0.00,CLR,OVC,0.00,WeatherDisplay:10.37,2013-05-19 15:01:00,
2013-05-19 11:06:00,72.5,36.6,28.38,WSW,247,4.5,5.8,27,0.00,CLR,OVC,0.00,WeatherDisplay:10.37,2013-05-19 15:06:00,
2013-05-19 11:11:00,73.0,36.1,28.38,SSE,159,2.2,5.8,26,0.00,CLR,OVC,0.00,WeatherDisplay:10.37,2013-05-19 15:11:00,
2013-05-19 11:16:00,73.6,35.6,28.38,SW,222,2.7,3.6,25,0.00,CLR,OVC,0.00,WeatherDisplay:10.37,2013-05-19 15:16:00,
2013-05-19 11:21:00,75.0,35.8,28.38,SSE,159,4.0,5.8,24,0.00,CLR,OVC,0.00,WeatherDisplay:10.37,2013-05-19 15:21:00,
2013-05-19 11:26:00,75.9,36.5,28.38,WSW,240,4.0,5.8,24,0.00,CLR,OVC,0.00,WeatherDisplay:10.37,2013-05-19 15:26:00,
2013-05-19 11:31:00,75.7,35.3,28.38,WSW,257,2.2,3.5,23,0.00,CLR,OVC,0.00,WeatherDisplay:10.37,2013-05-19 15:31:00,
2013-05-19 11:36:00,76.1,35.6,28.38,WSW,246,6.7,8.1,23,0.00,CLR,OVC,0.00,WeatherDisplay:10.37,2013-05-19 15:36:00,
2013-05-19 11:41:00,76.3,34.6,28.38,South,190,4.0,8.1,22,0.00,CLR,OVC,0.00,WeatherDisplay:10.37,2013-05-19 15:41:00,
2013-05-19 11:46:00,75.7,34.2,28.38,South,191,3.6,8.1,22,0.00,CLR,OVC,0.00,WeatherDisplay:10.37,2013-05-19 15:46:00,
2013-05-19 11:51:00,75.9,35.4,28.38,WSW,257,2.7,6.9,23,0.00,CLR,OVC,0.00,WeatherDisplay:10.37,2013-05-19 15:51:00,
2013-05-19 11:56:00,76.6,34.9,28.38,South,186,3.6,6.3,22,0.00,CLR,OVC,0.00,WeatherDisplay:10.37,2013-05-19 15:56:00,
2013-05-19 12:01:00,77.9,34.8,28.38,SSW,195,4.9,8.3,21,0.00,CLR,OVC,0.00,WeatherDisplay:10.37,2013-05-19 16:01:00,
2013-05-19 12:06:00,76.5,33.6,28.38,South,191,3.1,4.6,21,0.00,CLR,OVC,0.00,WeatherDisplay:10.37,2013-05-19 16:06:00,
2013-05-19 12:11:00,77.9,34.8,28.38,SSW,208,2.2,8.1,21,0.00,CLR,OVC,0.00,WeatherDisplay:10.37,2013-05-19 16:11:00,
2013-05-19 12:16:00,78.1,35.0,28.38,SSW,212,7.6,12.7,21,0.00,CLR,OVC,0.00,WeatherDisplay:10.37,2013-05-19 16:16:00,
2013-05-19 12:21:00,77.9,34.8,28.38,WSW,243,3.6,5.4,21,0.00,CLR,OVC,0.00,WeatherDisplay:10.37,2013-05-19 16:21:00,
2013-05-19 12:26:00,77.0,34.1,28.38,SE,145,6.3,8.1,21,0.00,CLR,OVC,0.00,WeatherDisplay:10.37,2013-05-19 16:26:00,
2013-05-19 12:31:00,76.8,33.9,28.38,SSW,210,6.3,7.6,21,0.00,CLR,OVC,0.00,WeatherDisplay:10.37,2013-05-19 16:31:00,
2013-05-19 12:36:00,77.0,34.1,28.38,South,178,3.6,5.8,21,0.00,CLR,OVC,0.00,WeatherDisplay:10.37,2013-05-19 16:36:00,
2013-05-19 12:41:00,76.6,33.8,28.38,SSW,209,2.2,4.6,21,0.00,CLR,OVC,0.00,WeatherDisplay:10.37,2013-05-19 16:41:00,
2013-05-19 12:46:00,76.1,33.3,28.38,SW,217,4.9,8.1,21,0.00,CLR,OVC,0.00,WeatherDisplay:10.37,2013-05-19 16:46:00,
2013-05-19 12:51:00,75.0,33.6,28.38,SE,146,5.8,8.1,22,0.00,CLR,OVC,0.00,WeatherDisplay:10.37,2013-05-19 16:51:00,
2013-05-19 12:56:00,74.8,33.4,28.38,South,180,6.7,8.1,22,0.00,CLR,OVC,0.00,WeatherDisplay:10.37,2013-05-19 16:56:00,
2013-05-19 13:01:00,75.0,33.6,28.38,SSE,149,3.6,8.1,22,0.00,CLR,OVC,0.00,WeatherDisplay:10.37,2013-05-19 17:01:00,
2013-05-19 13:06:00,77.0,34.1,28.35,SSE,165,6.3,6.3,21,0.00,CLR,OVC,0.00,WeatherDisplay:10.37,2013-05-19 17:06:00,
2013-05-19 13:11:00,77.9,34.8,28.35,West,272,4.0,8.1,21,0.00,CLR,OVC,0.00,WeatherDisplay:10.37,2013-05-19 17:11:00,
2013-05-19 13:16:00,78.6,35.4,28.35,SSE,163,5.8,9.2,21,0.00,CLR,OVC,0.00,WeatherDisplay:10.37,2013-05-19 17:16:00,
2013-05-19 13:21:00,78.4,34.0,28.35,SSW,201,2.2,3.5,20,0.00,CLR,OVC,0.00,WeatherDisplay:10.37,2013-05-19 17:21:00,
2013-05-19 13:26:00,78.6,34.2,28.35,South,180,3.6,5.8,20,0.00,CLR,OVC,0.00,WeatherDisplay:10.37,2013-05-19 17:26:00,
2013-05-19 13:31:00,77.2,34.2,28.35,ESE,103,3.6,5.8,21,0.00,CLR,OVC,0.00,WeatherDisplay:10.37,2013-05-19 17:31:00,
2013-05-19 13:36:00,77.0,34.1,28.35,SE,146,3.1,5.8,21,0.00,CLR,OVC,0.00,WeatherDisplay:10.37,2013-05-19 17:36:00,
2013-05-19 13:41:00,77.7,34.7,28.35,SE,127,3.1,5.8,21,0.00,CLR,OVC,0.00,WeatherDisplay:10.37,2013-05-19 17:41:00,
2013-05-19 13:46:00,78.6,34.2,28.35,SSW,194,2.2,5.8,20,0.00,CLR,OVC,0.00,WeatherDisplay:10.37,2013-05-19 17:46:00,
2013-05-19 13:51:00,79.2,34.6,28.35,South,189,3.6,4.5,20,0.00,CLR,OVC,0.00,WeatherDisplay:10.37,2013-05-19 17:51:00,
2013-05-19 13:56:00,78.6,34.2,28.35,SE,136,4.5,4.5,20,0.00,CLR,OVC,0.00,WeatherDisplay:10.37,2013-05-19 17:56:00,
2013-05-19 14:01:00,78.4,34.0,28.35,South,171,4.0,4.0,20,0.00,CLR,OVC,0.00,WeatherDisplay:10.37,2013-05-19 18:01:00,
2013-05-19 14:06:00,78.6,34.2,28.35,ESE,115,2.7,5.8,20,0.00,CLR,OVC,0.00,WeatherDisplay:10.37,2013-05-19 18:06:00,
2013-05-19 14:11:00,78.8,34.3,28.35,NE,43,2.7,5.8,20,0.00,CLR,OVC,0.00,WeatherDisplay:10.37,2013-05-19 18:11:00,
2013-05-19 14:16:00,79.5,34.9,28.35,SE,126,6.7,10.5,20,0.00,CLR,OVC,0.00,WeatherDisplay:10.37,2013-05-19 18:16:00,
2013-05-19 14:21:00,79.3,34.8,28.32,SSW,204,2.7,8.1,20,0.00,CLR,OVC,0.00,WeatherDisplay:10.37,2013-05-19 18:21:00,
2013-05-19 14:26:00,79.0,34.5,28.32,SSE,165,2.7,5.8,20,0.00,CLR,OVC,0.00,WeatherDisplay:10.37,2013-05-19 18:26:00,
2013-05-19 14:31:00,78.4,34.0,28.32,South,173,2.7,6.9,20,0.00,CLR,OVC,0.00,WeatherDisplay:10.37,2013-05-19 18:31:00,
2013-05-19 14:36:00,78.6,34.2,28.32,SE,125,0.0,2.3,20,0.00,CLR,OVC,0.00,WeatherDisplay:10.37,2013-05-19 18:36:00,
2013-05-19 14:41:00,78.6,34.2,28.32,South,171,5.4,8.1,20,0.00,CLR,OVC,0.00,WeatherDisplay:10.37,2013-05-19 18:41:00,
2013-05-19 14:46:00,78.3,33.9,28.32,ESE,120,3.6,4.6,20,0.00,CLR,OVC,0.00,WeatherDisplay:10.37,2013-05-19 18:46:00,
2013-05-19 14:51:00,78.3,33.9,28.32,SSE,153,4.5,10.4,20,0.00,CLR,OVC,0.00,WeatherDisplay:10.37,2013-05-19 18:51:00,
2013-05-19 14:56:00,78.6,34.2,28.32,SE,129,5.4,5.4,20,0.00,CLR,OVC,0.00,WeatherDisplay:10.37,2013-05-19 18:56:00,
2013-05-19 15:01:00,79.2,34.6,28.32,South,181,4.5,5.8,20,0.00,CLR,OVC,0.00,WeatherDisplay:10.37,2013-05-19 19:01:00,
2013-05-19 15:06:00,78.6,34.2,28.32,East,97,3.6,5.8,20,0.00,CLR,OVC,0.00,WeatherDisplay:10.37,2013-05-19 19:06:00,
2013-05-19 15:11:00,79.0,34.5,28.32,SSW,200,4.0,5.4,20,0.00,CLR,OVC,0.00,WeatherDisplay:10.37,2013-05-19 19:11:00,
2013-05-19 15:16:00,79.2,34.6,28.32,East,90,4.5,5.8,20,0.00,CLR,OVC,0.00,WeatherDisplay:10.37,2013-05-19 19:16:00,
2013-05-19 15:21:00,80.1,34.1,28.32,ENE,78,4.9,6.3,19,0.00,CLR,OVC,0.00,WeatherDisplay:10.37,2013-05-19 19:21:00,
2013-05-19 15:26:00,81.3,35.1,28.32,South,179,5.8,11.5,19,0.00,CLR,OVC,0.00,WeatherDisplay:10.37,2013-05-19 19:26:00,
2013-05-19 15:31:00,81.5,31.0,28.32,ESE,111,4.0,5.8,16,0.00,CLR,OVC,0.00,WeatherDisplay:10.37,2013-05-19 19:31:00,
2013-05-19 15:36:00,81.5,31.0,28.32,SE,137,4.9,5.8,16,0.00,CLR,OVC,0.00,WeatherDisplay:10.37,2013-05-19 19:36:00,
2013-05-19 15:41:00,82.0,31.4,28.32,East,100,4.9,5.8,16,0.00,CLR,OVC,0.00,WeatherDisplay:10.37,2013-05-19 19:41:00,
2013-05-19 15:46:00,81.5,31.0,28.32,SSE,152,5.8,11.5,16,0.00,CLR,OVC,0.00,WeatherDisplay:10.37,2013-05-19 19:46:00,
2013-05-19 15:51:00,80.6,31.7,28.29,SSE,157,4.5,6.9,17,0.00,CLR,OVC,0.00,WeatherDisplay:10.37,2013-05-19 19:51:00,
2013-05-19 15:56:00,79.5,30.9,28.29,NE,52,3.1,4.6,17,0.00,CLR,OVC,0.00,WeatherDisplay:10.37,2013-05-19 19:56:00,
2013-05-19 16:01:00,79.9,33.9,28.29,NNE,14,4.0,5.8,19,0.00,CLR,OVC,0.00,WeatherDisplay:10.37,2013-05-19 20:01:00,
2013-05-19 16:06:00,79.3,34.8,28.32,ENE,76,2.7,4.9,20,0.00,CLR,OVC,0.00,WeatherDisplay:10.37,2013-05-19 20:06:00,
2013-05-19 16:11:00,79.9,31.2,28.32,East,80,5.4,8.1,17,0.00,CLR,OVC,0.00,WeatherDisplay:10.37,2013-05-19 20:11:00,
2013-05-19 16:16:00,79.5,34.9,28.32,East,91,3.1,5.8,20,0.00,CLR,OVC,0.00,WeatherDisplay:10.37,2013-05-19 20:16:00,
2013-05-19 16:21:00,78.8,34.3,28.29,East,99,6.3,8.1,20,0.00,CLR,OVC,0.00,WeatherDisplay:10.37,2013-05-19 20:21:00,
2013-05-19 16:26:00,78.6,34.2,28.29,ENE,57,4.5,5.8,20,0.00,CLR,OVC,0.00,WeatherDisplay:10.37,2013-05-19 20:26:00,
2013-05-19 16:31:00,78.3,33.9,28.29,SSE,155,2.7,5.8,20,0.00,CLR,OVC,0.00,WeatherDisplay:10.37,2013-05-19 20:31:00,
2013-05-19 16:36:00,78.4,34.0,28.32,NNE,16,5.8,5.8,20,0.00,CLR,OVC,0.00,WeatherDisplay:10.37,2013-05-19 20:36:00,
2013-05-19 16:41:00,79.2,34.6,28.32,ESE,102,4.9,8.1,20,0.00,CLR,OVC,0.00,WeatherDisplay:10.37,2013-05-19 20:41:00,
2013-05-19 16:46:00,81.0,34.8,28.32,ESE,117,4.9,8.1,19,0.00,CLR,OVC,0.00,WeatherDisplay:10.37,2013-05-19 20:46:00,
2013-05-19 16:51:00,82.4,31.7,28.32,SE,127,5.4,8.1,16,0.00,CLR,OVC,0.00,WeatherDisplay:10.37,2013-05-19 20:51:00,
2013-05-19 16:56:00,80.4,34.4,28.32,East,97,4.9,8.7,19,0.00,CLR,OVC,0.00,WeatherDisplay:10.37,2013-05-19 20:56:00,
2013-05-19 17:01:00,80.1,34.1,28.32,SE,130,4.5,5.8,19,0.00,CLR,OVC,0.00,WeatherDisplay:10.37,2013-05-19 21:01:00,
2013-05-19 17:06:00,79.0,30.4,28.32,ESE,105,4.0,7.6,17,0.00,CLR,OVC,0.00,WeatherDisplay:10.37,2013-05-19 21:06:00,
2013-05-19 17:11:00,78.1,33.7,28.32,East,88,3.6,8.1,20,0.00,CLR,OVC,0.00,WeatherDisplay:10.37,2013-05-19 21:11:00,
2013-05-19 17:16:00,77.5,33.3,28.32,NNE,24,4.9,5.8,20,0.00,CLR,OVC,0.00,WeatherDisplay:10.37,2013-05-19 21:16:00,
2013-05-19 17:21:00,76.6,32.5,28.32,East,96,4.0,5.8,20,0.00,CLR,OVC,0.00,WeatherDisplay:10.37,2013-05-19 21:21:00,
2013-05-19 17:26:00,76.3,32.2,28.32,ENE,73,2.7,5.8,20,0.00,CLR,OVC,0.00,WeatherDisplay:10.37,2013-05-19 21:26:00,
2013-05-19 17:31:00,76.1,32.1,28.32,ENE,70,3.1,4.0,20,0.00,CLR,OVC,0.00,WeatherDisplay:10.37,2013-05-19 21:31:00,
2013-05-19 17:36:00,76.1,33.3,28.32,East,98,3.6,5.4,21,0.00,CLR,OVC,0.00,WeatherDisplay:10.37,2013-05-19 21:36:00,
2013-05-19 17:41:00,77.2,33.0,28.32,ENE,65,5.8,8.1,20,0.00,CLR,OVC,0.00,WeatherDisplay:10.37,2013-05-19 21:41:00,
2013-05-19 17:46:00,77.0,32.8,28.32,ESE,102,3.6,4.6,20,0.00,CLR,OVC,0.00,WeatherDisplay:10.37,2013-05-19 21:46:00,
2013-05-19 17:51:00,76.3,33.5,28.32,ESE,120,4.9,5.8,21,0.00,CLR,OVC,0.00,WeatherDisplay:10.37,2013-05-19 21:51:00,
2013-05-19 17:56:00,75.4,32.7,28.32,SE,138,0.0,3.5,21,0.00,CLR,OVC,0.00,WeatherDisplay:10.37,2013-05-19 21:56:00,
2013-05-19 18:01:00,74.7,32.1,28.32,SSE,162,4.9,8.1,21,0.00,CLR,OVC,0.00,WeatherDisplay:10.37,2013-05-19 22:01:00,
2013-05-19 18:06:00,74.1,32.8,28.32,SSW,192,5.4,8.1,22,0.00,CLR,OVC,0.00,WeatherDisplay:10.37,2013-05-19 22:06:00,
2013-05-19 18:11:00,73.8,32.5,28.32,South,182,5.4,8.1,22,0.00,CLR,OVC,0.00,WeatherDisplay:10.37,2013-05-19 22:11:00,
2013-05-19 18:16:00,73.8,32.5,28.32,South,181,7.6,9.2,22,0.00,CLR,OVC,0.00,WeatherDisplay:10.37,2013-05-19 22:16:00,
2013-05-19 18:21:00,73.6,32.4,28.32,SSE,164,8.7,15.0,22,0.00,CLR,OVC,0.00,WeatherDisplay:10.37,2013-05-19 22:21:00,
2013-05-19 18:26:00,73.2,32.1,28.32,SE,138,6.3,10.4,22,0.00,CLR,OVC,0.00,WeatherDisplay:10.37,2013-05-19 22:26:00,
2013-05-19 18:31:00,73.0,33.0,28.32,SSE,164,3.6,5.8,23,0.00,CLR,OVC,0.00,WeatherDisplay:10.37,2013-05-19 22:31:00,
2013-05-19 18:36:00,73.0,33.0,28.32,South,171,7.2,8.1,23,0.00,CLR,OVC,0.00,WeatherDisplay:10.37,2013-05-19 22:36:00,
2013-05-19 18:41:00,72.7,32.7,28.32,South,173,5.8,10.4,23,0.00,CLR,OVC,0.00,WeatherDisplay:10.37,2013-05-19 22:41:00,
2013-05-19 18:46:00,72.5,32.6,28.32,SSE,148,4.5,5.8,23,0.00,CLR,OVC,0.00,WeatherDisplay:10.37,2013-05-19 22:46:00,
2013-05-19 18:51:00,73.0,33.0,28.32,SSE,150,4.0,8.1,23,0.00,CLR,OVC,0.00,WeatherDisplay:10.37,2013-05-19 22:51:00,
2013-05-19 18:56:00,73.6,33.5,28.32,SSW,207,5.4,8.1,23,0.00,CLR,OVC,0.00,WeatherDisplay:10.37,2013-05-19 22:56:00,
2013-05-19 19:01:00,73.6,33.5,28.32,ESE,116,4.5,5.8,23,0.00,CLR,OVC,0.00,WeatherDisplay:10.37,2013-05-19 23:01:00,
2013-05-19 19:06:00,73.4,33.3,28.32,South,172,4.0,5.8,23,0.00,CLR,OVC,0.00,WeatherDisplay:10.37,2013-05-19 23:06:00,
2013-05-19 19:11:00,73.0,33.0,28.32,East,88,4.0,8.1,23,0.00,CLR,OVC,0.00,WeatherDisplay:10.37,2013-05-19 23:11:00,
2013-05-19 19:16:00,72.9,33.9,28.32,SSE,149,5.4,5.8,24,0.00,CLR,OVC,0.00,WeatherDisplay:10.37,2013-05-19 23:16:00,
2013-05-19 19:21:00,72.7,33.8,28.32,SSE,149,4.5,5.8,24,0.00,CLR,OVC,0.00,WeatherDisplay:10.37,2013-05-19 23:21:00,
2013-05-19 19:26:00,72.5,33.6,28.32,SE,139,4.9,5.8,24,0.00,CLR,OVC,0.00,WeatherDisplay:10.37,2013-05-19 23:26:00,
2013-05-19 19:31:00,72.5,33.6,28.32,ESE,122,5.8,8.1,24,0.00,CLR,OVC,0.00,WeatherDisplay:10.37,2013-05-19 23:31:00,
2013-05-19 19:36:00,72.1,34.4,28.32,East,88,4.5,5.8,25,0.00,CLR,OVC,0.00,WeatherDisplay:10.37,2013-05-19 23:36:00,
2013-05-19 19:41:00,71.8,34.0,28.32,SE,133,0.0,6.9,25,0.00,CLR,OVC,0.00,WeatherDisplay:10.37,2013-05-19 23:41:00,
2013-05-19 19:46:00,71.8,35.0,28.32,East,95,5.4,8.1,26,0.00,CLR,OVC,0.00,WeatherDisplay:10.37,2013-05-19 23:46:00,
2013-05-19 19:51:00,71.8,35.0,28.32,ENE,74,5.4,5.8,26,0.00,CLR,OVC,0.00,WeatherDisplay:10.37,2013-05-19 23:51:00,
2013-05-19 19:56:00,71.8,35.0,28.32,SE,146,2.2,5.8,26,0.00,CLR,OVC,0.00,WeatherDisplay:10.37,2013-05-19 23:56:00,
2013-05-19 20:01:00,71.6,35.8,28.32,ESE,113,2.7,3.5,27,0.00,CLR,OVC,0.00,WeatherDisplay:10.37,2013-05-20 00:01:00,
2013-05-19 20:06:00,71.1,35.4,28.32,ESE,119,3.1,5.8,27,0.00,CLR,OVC,0.00,WeatherDisplay:10.37,2013-05-20 00:06:00,
2013-05-19 20:11:00,70.7,36.9,28.32,ESE,110,4.0,5.8,29,0.00,CLR,OVC,0.00,WeatherDisplay:10.37,2013-05-20 00:11:00,
2013-05-19 20:16:00,70.3,36.6,28.32,ENE,70,3.1,3.5,29,0.00,CLR,OVC,0.00,WeatherDisplay:10.37,2013-05-20 00:16:00,
2013-05-19 20:21:00,70.0,36.2,28.32,NE,38,0.0,3.5,29,0.00,CLR,OVC,0.00,WeatherDisplay:10.37,2013-05-20 00:21:00,
2013-05-19 20:26:00,69.3,36.5,28.32,ENE,71,4.0,5.8,30,0.00,CLR,OVC,0.00,WeatherDisplay:10.37,2013-05-20 00:26:00,
2013-05-19 20:31:00,68.5,37.5,28.32,ENE,66,0.0,3.5,32,0.00,CLR,OVC,0.00,WeatherDisplay:10.37,2013-05-20 00:31:00,
2013-05-19 20:36:00,68.0,37.0,28.32,ENE,77,3.1,3.5,32,0.00,CLR,OVC,0.00,WeatherDisplay:10.37,2013-05-20 00:36:00,
2013-05-19 20:41:00,67.3,36.4,28.32,NNE,13,0.0,2.3,32,0.00,CLR,OVC,0.00,WeatherDisplay:10.37,2013-05-20 00:41:00,
2013-05-19 20:46:00,66.7,36.7,28.32,NE,39,2.2,5.8,33,0.00,CLR,OVC,0.00,WeatherDisplay:10.37,2013-05-20 00:46:00,
2013-05-19 20:51:00,65.8,35.9,28.32,NE,43,3.1,5.8,33,0.00,CLR,OVC,0.00,WeatherDisplay:10.37,2013-05-20 00:51:00,
2013-05-19 20:56:00,65.1,36.0,28.32,ENE,65,2.7,5.8,34,0.00,CLR,OVC,0.00,WeatherDisplay:10.37,2013-05-20 00:56:00,
2013-05-19 21:01:00,64.0,35.1,28.32,NE,47,2.7,5.8,34,0.00,CLR,OVC,0.00,WeatherDisplay:10.37,2013-05-20 01:01:00,
2013-05-19 21:06:00,63.3,35.9,28.32,NNE,23,3.6,3.6,36,0.00,CLR,OVC,0.00,WeatherDisplay:10.37,2013-05-20 01:06:00,
2013-05-19 21:11:00,62.6,36.6,28.32,NE,37,3.6,5.8,38,0.00,CLR,OVC,0.00,WeatherDisplay:10.37,2013-05-20 01:11:00,
2013-05-19 21:16:00,61.9,36.0,28.32,North,8,0.0,2.3,38,0.00,CLR,OVC,0.00,WeatherDisplay:10.37,2013-05-20 01:16:00,
2013-05-19 21:21:00,61.3,36.8,28.32,NE,37,2.2,5.4,40,0.00,CLR,OVC,0.00,WeatherDisplay:10.37,2013-05-20 01:21:00,
2013-05-19 21:26:00,60.8,36.3,28.32,NNE,27,0.0,0.0,40,0.00,CLR,OVC,0.00,WeatherDisplay:10.37,2013-05-20 01:26:00,
2013-05-19 21:31:00,60.3,36.4,28.32,NNE,27,2.2,2.3,41,0.00,CLR,OVC,0.00,WeatherDisplay:10.37,2013-05-20 01:31:00,
2013-05-19 21:36:00,59.7,37.8,28.32,NE,44,2.2,3.5,44,0.00,CLR,OVC,0.00,WeatherDisplay:10.37,2013-05-20 01:36:00,
2013-05-19 21:41:00,59.4,37.4,28.32,North,10,0.0,0.0,44,0.00,CLR,OVC,0.00,WeatherDisplay:10.37,2013-05-20 01:41:00,
2013-05-19 21:46:00,59.0,37.1,28.32,NE,44,0.0,0.0,44,0.00,CLR,OVC,0.00,WeatherDisplay:10.37,2013-05-20 01:46:00,
2013-05-19 21:51:00,58.5,36.0,28.32,NE,44,0.0,0.0,43,0.00,CLR,OVC,0.00,WeatherDisplay:10.37,2013-05-20 01:51:00,
2013-05-19 21:56:00,57.9,36.1,28.32,NE,44,0.0,0.0,44,0.00,CLR,OVC,0.00,WeatherDisplay:10.37,2013-05-20 01:56:00,
2013-05-19 22:01:00,57.6,36.4,28.32,NE,42,0.0,0.0,45,0.00,CLR,OVC,0.00,WeatherDisplay:10.37,2013-05-20 02:01:00,
2013-05-19 22:06:00,57.2,36.6,28.32,NE,40,0.0,0.0,46,0.00,CLR,OVC,0.00,WeatherDisplay:10.37,2013-05-20 02:06:00,
2013-05-19 22:11:00,56.8,36.3,28.32,NNE,20,0.0,2.3,46,0.00,CLR,OVC,0.00,WeatherDisplay:10.37,2013-05-20 02:11:00,
2013-05-19 22:16:00,56.7,36.1,28.32,NE,49,0.0,0.0,46,0.00,CLR,OVC,0.00,WeatherDisplay:10.37,2013-05-20 02:16:00,
2013-05-19 22:21:00,56.8,40.4,28.32,NE,40,2.2,2.3,54,0.00,CLR,OVC,0.00,WeatherDisplay:10.37,2013-05-20 02:21:00,
2013-05-19 22:26:00,57.0,40.0,28.32,NNE,33,0.0,0.0,53,0.00,CLR,OVC,0.00,WeatherDisplay:10.37,2013-05-20 02:26:00,
2013-05-19 22:31:00,57.0,40.5,28.32,NNE,33,0.0,2.2,54,0.00,CLR,OVC,0.00,WeatherDisplay:10.37,2013-05-20 02:31:00,
2013-05-19 22:36:00,57.2,40.2,28.32,NNE,33,0.0,0.0,53,0.00,CLR,OVC,0.00,WeatherDisplay:10.37,2013-05-20 02:36:00,
2013-05-19 22:41:00,57.2,40.7,28.32,NNE,33,0.0,0.0,54,0.00,CLR,OVC,0.00,WeatherDisplay:10.37,2013-05-20 02:41:00,
2013-05-19 22:46:00,57.2,40.7,28.32,NNE,33,0.0,0.0,54,0.00,CLR,OVC,0.00,WeatherDisplay:10.37,2013-05-20 02:46:00,
2013-05-19 22:51:00,56.8,39.9,28.32,NNE,33,0.0,0.0,53,0.00,CLR,OVC,0.00,WeatherDisplay:10.37,2013-05-20 02:51:00,
2013-05-19 22:56:00,56.7,39.2,28.32,NE,49,0.0,2.3,52,0.00,CLR,OVC,0.00,WeatherDisplay:10.37,2013-05-20 02:56:00,
2013-05-19 23:01:00,56.8,42.2,28.32,NNE,13,0.0,3.5,58,0.00,CLR,OVC,0.00,WeatherDisplay:10.37,2013-05-20 03:01:00,
2013-05-19 23:06:00,57.2,43.4,28.32,NE,49,2.2,2.3,60,0.00,CLR,OVC,0.00,WeatherDisplay:10.37,2013-05-20 03:06:00,
2013-05-19 23:11:00,57.0,42.4,28.32,East,79,0.0,0.0,58,0.00,CLR,OVC,0.00,WeatherDisplay:10.37,2013-05-20 03:11:00,
2013-05-19 23:16:00,56.7,41.1,28.32,NE,55,0.0,3.5,56,0.00,CLR,OVC,0.00,WeatherDisplay:10.37,2013-05-20 03:16:00,
2013-05-19 23:21:00,56.7,42.0,28.32,ESE,110,3.1,4.6,58,0.00,CLR,OVC,0.00,WeatherDisplay:10.37,2013-05-20 03:21:00,
2013-05-19 23:26:00,57.0,45.4,28.32,ENE,75,0.0,3.5,65,0.00,CLR,OVC,0.00,WeatherDisplay:10.37,2013-05-20 03:26:00,
2013-05-19 23:31:00,57.2,45.9,28.32,East,95,3.1,4.0,66,0.00,CLR,OVC,0.00,WeatherDisplay:10.37,2013-05-20 03:31:00,
2013-05-19 23:36:00,57.4,46.1,28.32,East,86,0.0,2.3,66,0.00,CLR,OVC,0.00,WeatherDisplay:10.37,2013-05-20 03:36:00,
2013-05-19 23:41:00,57.4,46.1,28.32,ESE,111,0.0,3.5,66,0.00,CLR,OVC,0.00,WeatherDisplay:10.37,2013-05-20 03:41:00,
2013-05-19 23:46:00,57.4,46.1,28.32,ESE,102,0.0,0.0,66,0.00,CLR,OVC,0.00,WeatherDisplay:10.37,2013-05-20 03:46:00,
2013-05-19 23:51:00,57.4,46.5,28.32,East,95,0.0,0.0,67,0.00,CLR,OVC,0.00,WeatherDisplay:10.37,2013-05-20 03:51:00,
2013-05-19 23:56:00,57.2,45.5,28.32,East,95,0.0,2.3,65,0.00,CLR,OVC,0.00,WeatherDisplay:10.37,2013-05-20 03:56:00,